Regional Weather Roundup
Issued by NWS Sterling, VA

Home | Current Version | Previous Version | Text Only | Print | Product List | Glossary Off
Versions: 1 2 3 4 5 6 7 8 9 10 11 12 13 14 15 16 17 18 19 20 21 22 23 24 25 26 27 28 29 30 31 32 33 34 35 36 37 38 39 40 41 42 43 44 45 46 47 48 49 50

000
ASUS41 KLWX 300310
RWRLWX

REGIONAL WEATHER ROUNDUP
NATIONAL WEATHER SERVICE BALTIMORE MD/WASHINGTON DC
1100 PM EDT FRI MAY 29 2015

Note: "FAIR" indicates few or no clouds below 12,000 feet
with no significant weather and/or obstructions to visibility.
 TC=TEMPERATURE CELSIUS

 * =Non NWS site. Station does not report precipitation (e.g. rain,
    snow, etc.), thunder, or fog.

DCZ001-MDZ009-015-VAZ040>042-051-053>054-300400-
WASHINGTON METRO

CITY           SKY/WX    TMP DP  RH WIND       PRES   REMARKS
WASHINGTON NAT MOCLDY    78  67  68 S12       30.21S
DULLES         MOCLDY    69  67  93 S5        30.20S
ANDREWS AFB    PTCLDY    71  65  82 S6        30.21S
FT BELVOIR     PTCLDY    71  67  87 SE6       30.20F
QUANTICO       PTCLDY    74  67  78 S9        30.21F
COLLEGE PARK*  PTCLDY    75  64  69 S5        30.20F
LEESBURG*      MOCLDY    72  68  88 S5        30.21S
MANASSAS*      MOCLDY    70  68  94 CALM      30.20S
GAITHERSBURG*  PTCLDY    72  66  83 SE6       30.25S

$$

MDZ006>007-011-014-300400-
BALTIMORE METRO

CITY           SKY/WX    TMP DP  RH WIND       PRES   REMARKS
BWI AIRPORT    MOCLDY    73  62  68 SE6       30.20S
MD SCIENCE CTR   N/A     78  64  61 MISG      30.21F
MARTIN STATE   MOCLDY    73  72  94 SE7       30.23S
ANNAPOLIS      MOCLDY    73  65  75 S13       30.21S
FORT MEADE*    MOCLDY    68  63  83 SE5       30.23S

$$

MDZ012-015-019>023-300400-
MARYLAND EASTERN SHORE

CITY           SKY/WX    TMP DP  RH WIND       PRES   REMARKS
OCEAN CITY     MOCLDY    66  64  93 CALM      30.25S
SALISBURY      PTCLDY    65  63  93 CALM      30.24S
BAY BRIDGE AP*   N/A    N/A N/A N/A SE6       30.22S
CAMBRIDGE*     MOCLDY    72  66  83 SE6       30.22F
EASTON*        MOCLDY    70  70 100 S6        30.26F

$$

MDZ017>025-300400-
SOUTHERN MARYLAND

CITY           SKY/WX    TMP DP  RH WIND       PRES   REMARKS
PATUXENT RIVER PTCLDY    72  66  81 S8        30.22S
ST INIGOES       N/A     72  67  84 SE7       30.21S
LEONARDTOWN*   PTCLDY    70  64  83 SE3       30.24S

$$

MDZ003>005-300400-
NORTH CENTRAL MARYLAND

CITY           SKY/WX    TMP DP  RH WIND       PRES   REMARKS
FREDERICK*     PTCLDY    72  68  88 CALM      30.22S
HAGERSTOWN APT PTCLDY    76  65  68 SE7       30.19S
WESTMINSTER*   PTCLDY    73  66  78 SE7       30.22S

$$

MDZ501>502-300400-
WESTERN MARYLAND

CITY           SKY/WX    TMP DP  RH WIND       PRES   REMARKS
OAKLAND*       PTCLDY    63 N/A N/A SE7       30.25F
CUMBERLAND*    PTCLDY    68  68 100 CALM      30.22F

$$

VAZ025>031-300400-
SHENANDOAH VALLEY

CITY           SKY/WX    TMP DP  RH WIND       PRES   REMARKS
WINCHESTER*    PTCLDY    72  68  88 S3        30.19F
FRONT ROYAL*   FAIR      68  64  88 CALM      30.18F
LURAY*         FAIR      68  68 100 CALM      30.21S FOG
NEW MARKET*    FAIR      66  66  99 CALM      30.19F
STAUNTON*      PTCLDY    72  67  85 CALM      30.23F
WAYNESBORO*    FAIR      68  67  97 CALM      30.23F

$$

WVZ021-048>050-054>055-300400-
EASTERN WEST VIRGINIA PANHANDLE

CITY           SKY/WX    TMP DP  RH WIND       PRES   REMARKS
MARTINSBURG    PTCLDY    71  66  84 CALM      30.19S
PETERSBURG*    PTCLDY    67  64  89 CALM      30.20F

$$

VAZ036>039-050-300400-
CENTRAL FOOTHILLS

CITY           SKY/WX    TMP DP  RH WIND       PRES   REMARKS
CHARLOTTESVILL PTCLDY    70  66  87 CALM      30.20F
CULPEPER*      CLOUDY    68  66  94 CALM      30.21S
ORANGE*        MOCLDY    70  68  94 CALM      30.22F
GORDONSVILLE*  MOCLDY    67  66  98 CALM      30.20F FOG
WARRENTON*     FAIR      68  68  98 SE3       30.20S

$$

VAZ055>057-300400-
NORTH AND CENTRAL PIEDMONT

CITY           SKY/WX    TMP DP  RH WIND       PRES   REMARKS
FREDERICKSBRG* PTCLDY    71  71 100 CALM      30.20S
STAFFORD*      FOG       66  65  97 CALM      30.25S VSB 1/2

$$

NCZ024-NYZ072-PAZ021-071-VAZ022-071-300400-
OTHER REGIONAL OBSERVATIONS

CITY           SKY/WX    TMP DP  RH WIND       PRES   REMARKS
NEW YORK CITY  PTCLDY    68  59  73 CALM      30.26F
PHILADELPHIA   MOCLDY    73  63  70 S5        30.23S
PITTSBURGH     PTCLDY    73  64  73 S6        30.14S
ROANOKE        PTCLDY    68  66  93 CALM      30.23S
RICHMOND       MOCLDY    71  66  84 SE7       30.21R
RALEIGH        PTCLDY    72  59  63 SE7       30.21R

$$

ANZ530>537-300400-
MARINE OBSERVATIONS

STATION/POSITION TIME  TEMP    WIND        PRES
                       AIR SEA DIR/SP/G
                 (UTC) (F)     (DEG/KT/KT) (MB)
THOMAS PT LIGHT  0300   73 71  180/ 16/ 17 1023.5S
BALT KEY BRIDGE  0200   75     150/ 12/ 14 1022.5R
COVE POINT       0200   72     190/ 13/ 15 1024.1R
LEWISETTA        0200   73 77              1023.1R
SOLOMONS ISLAND  0200      75                N/A
PINEY POINT      0200          170/ 11/ 12   N/A

$$




USA.gov is the U.S. government's official web portal to all federal, state and local government web resources and services.